User: anonymous   Login
Location: Unspecified
(0.0000°N, 0.0000°E)
Time: 07:02:06
(UTC+00:00)
Language:

Tansei-1 - Orbit

View from above orbital plane
View from above orbital plane
View from above satellite
View from above satellite

Ground track
Ground track

The orbit data is extracted from the following two-line orbital elements,

1  4952U 71011A   19081.46917578 +.00000055 +00000-0 -12566-4 0  9991
2  4952 029.6657 176.5369 0079906 008.4019 049.5771 13.58480641388773
Epoch (UTC): 22 March 2019 11:15:36
Eccentricity: 0.0079906
inclination: 29.6657°
perigee height: 982 km
apogee height: 1100 km
right ascension of ascending node: 176.5369°
argument of perigee: 8.4019°
revolutions per day: 13.58480641
mean anomaly at epoch: 49.5771°
orbit number at epoch: 38877

The dashed part of the orbit path shows where the satellite is in the earth's shadow,  

DLR